QPF
0.00 0.00 0.00 0.00 0.00 0.00 0.00 0.01 0.01 0.01 0.00 0.00 0.01 0.00 0.00 0.00 0.00 0.00 0.00 0.00 0.00 0.00 0.00 0.00 0.00 0.00 0.00 0.00 0.00 0.00 0.00 0.00 0.00 0.00 0.00 0.00 0.00 0.00 0.00 0.00 0.00 0.00 0.00 0.00 0.00
0.00 0.00 0.00 0.00 0.00 0.00 0.00 0.00 0.00 0.00 0.01 0.01 0.00 0.00 0.00 0.00 0.00 0.00 0.02 0.00 0.00 0.00 0.00 0.00 0.00 0.00 0.00 0.00 0.00 0.00 0.00 0.00 0.00 0.00 0.00 0.00 0.00 0.00 0.00 0.00 0.00 0.00 0.00 0.00 0.00
0.00 0.00 0.00 0.00 0.00 0.00 0.00 0.00 0.00 0.00 0.00 0.00 0.00 0.00 0.00 0.00 0.00 0.00 0.00 0.00 0.00 0.00 0.00 0.00 0.00 0.00 0.00 0.00 0.00 0.00 0.00 0.00 0.00 0.00 0.00 0.00 0.00 0.00 0.00 0.00 0.00 0.00 0.00 0.00 0.00
0.00 0.00 0.00 0.00 0.00 0.00 0.00 0.00 0.00 0.00 0.00 0.00 0.00 0.00 0.00 0.00 0.00 0.00 0.00 0.00 0.00 0.00 0.00 0.00 0.00 0.00 0.00 0.00 0.00 0.00 0.00 0.00 0.00 0.00 0.00 0.00 0.00 0.00 0.00 0.00 0.00 0.00 0.00 0.00 0.00
0.00 0.00 0.00 0.00 0.00 0.00 0.00 0.00 0.00 0.00 0.00 0.00 0.00 0.00 0.00 0.00 0.00 0.00 0.00 0.00 0.00 0.00 0.00 0.00 0.00 0.00 0.00 0.00 0.00 0.00 0.00 0.00 0.00 0.00 0.00 0.00 0.00 0.00 0.00 0.00 0.00 0.00 0.00 0.00 0.00
0.00 0.00 0.00 0.00 0.00 0.00 0.00 0.00 0.00 0.00 0.00 0.00 0.00 0.00 0.00 0.00 0.00 0.00 0.00 0.00 0.00 0.00 0.00 0.00 0.00 0.00 0.00 0.00 0.00 0.00 0.00 0.00 0.00 0.00 0.00 0.00 0.00 0.00 0.00 0.00 0.00 0.00 0.00 0.00 0.00
0.00 0.00 0.00 0.00 0.00 0.00 0.00 0.00 0.00 0.00 0.00 0.00 0.00 0.00 0.00 0.00 0.00 0.00 0.00 0.00 0.00 0.00 0.00 0.00 0.00 0.00 0.00 0.00 0.00 0.00 0.00 0.00 0.00 0.00 0.00 0.00 0.00 0.00 0.00 0.00 0.00 0.00 0.00 0.00 0.00
0.00 0.00 0.00 0.00 0.00 0.00 0.00 0.00 0.00 0.00 0.00 0.00 0.00 0.00 0.00 0.00 0.00 0.00 0.00 0.00 0.00 0.00 0.00 0.00 0.00 0.00 0.00 0.00 0.00 0.00 0.00 0.00 0.00 0.00 0.00 0.00 0.00 0.00 0.00 0.00 0.00 0.00 0.00 0.00 0.00
0.00 0.00 0.00 0.00 0.00 0.00 0.00 0.00 0.00 0.00 0.00 0.00 0.00 0.00 0.00 0.00 0.00 0.00 0.00 0.00 0.00 0.00 0.00 0.00 0.00 0.00 0.00 0.00 0.00 0.00 0.00 0.00 0.00 0.00 0.00 0.00 0.00 0.00 0.00 0.00 0.00 0.00 0.00 0.00 0.00
0.00 0.00 0.00 0.00 0.00 0.00 0.00 0.00 0.00 0.00 0.00 0.00 0.00 0.00 0.00 0.00 0.00 0.00 0.00 0.00 0.00 0.00 0.00 0.00 0.00 0.00 0.00 0.00 0.00 0.00 0.00 0.00 0.00 0.00 0.00 0.00 0.00 0.00 0.00 0.00 0.00 0.00 0.00 0.00 0.00
0.00 0.00 0.00 0.00 0.00 0.00 0.00 0.00 0.00 0.00 0.00 0.00 0.00 0.00 0.00 0.00 0.00 0.00 0.00 0.00 0.00 0.00 0.00 0.00 0.00 0.00 0.00 0.00 0.00 0.00 0.00 0.00 0.00 0.00 0.00 0.00 0.00 0.00 0.00 0.00 0.00 0.00 0.00 0.00 0.00
0.00 0.00 0.00 0.00 0.00 0.00 0.00 0.00 0.00 0.00 0.00 0.00 0.00 0.00 0.00 0.00 0.00 0.00 0.00 0.00 0.00 0.00 0.00 0.00 0.00 0.00 0.00 0.00 0.00 0.00 0.00 0.00 0.00 0.00 0.00 0.00 0.00 0.00 0.00 0.00 0.00 0.00 0.00 0.00 0.00
0.00 0.00 0.00 0.00 0.00 0.00 0.00 0.00 0.00 0.00 0.00 0.00 0.00 0.00 0.00 0.00 0.00 0.00 0.00 0.00 0.00 0.00 0.00 0.00 0.00 0.00 0.00 0.00 0.00 0.00 0.00 0.00 0.00 0.00 0.00 0.00 0.00 0.00 0.00 0.00 0.00 0.00 0.00 0.00 0.00
0.00 0.00 0.00 0.00 0.00 0.00 0.00 0.00 0.00 0.00 0.00 0.00 0.00 0.00 0.00 0.00 0.00 0.00 0.00 0.00 0.00 0.00 0.00 0.00 0.00 0.00 0.00 0.00 0.00 0.00 0.00 0.00 0.00 0.00 0.00 0.00 0.00 0.00 0.00 0.00 0.00 0.00 0.00 0.00 0.00
0.00 0.00 0.00 0.00 0.00 0.00 0.00 0.00 0.00 0.00 0.00 0.00 0.00 0.00 0.00 0.00 0.00 0.00 0.00 0.00 0.00 0.00 0.00 0.00 0.00 0.00 0.00 0.00 0.00 0.00 0.00 0.00 0.00 0.00 0.00 0.00 0.00 0.00 0.00 0.00 0.00 0.00 0.00 0.00 0.00
0.00 0.00 0.00 0.00 0.00 0.00 0.00 0.00 0.00 0.00 0.00 0.00 0.00 0.00 0.00 0.00 0.00 0.00 0.00 0.00 0.00 0.00 0.00 0.00 0.00 0.00 0.00 0.00 0.00 0.00 0.00 0.00 0.00 0.00 0.00 0.00 0.00 0.00 0.00 0.00 0.00 0.00 0.00 0.00 0.00
0.00 0.00 0.00 0.00 0.00 0.00 0.00 0.00 0.00 0.00 0.00 0.00 0.00 0.00 0.00 0.00 0.00 0.00 0.00 0.00 0.00 0.00 0.00 0.00 0.00 0.00 0.00 0.00 0.00 0.00 0.00 0.00 0.00 0.00 0.00 0.00 0.00 0.00 0.00 0.00 0.00 0.00 0.00 0.00 0.00
0.00 0.00 0.00 0.00 0.00 0.00 0.00 0.00 0.00 0.00 0.00 0.00 0.00 0.00 0.00 0.00 0.00 0.00 0.00 0.00 0.00 0.00 0.00 0.00 0.00 0.00 0.00 0.00 0.00 0.00 0.00 0.00 0.00 0.00 0.00 0.00 0.00 0.00 0.00 0.00 0.00 0.00 0.00 0.00 0.00
0.00 0.00 0.00 0.00 0.00 0.00 0.00 0.00 0.00 0.00 0.00 0.00 0.00 0.00 0.00 0.00 0.00 0.00 0.00 0.00 0.00 0.00 0.00 0.00 0.00 0.00 0.00 0.00 0.00 0.00 0.00 0.00 0.00 0.00 0.00 0.00 0.00 0.00 0.00 0.00 0.00 0.00 0.00 0.00 0.00
0.00 0.00 0.00 0.00 0.00 0.00 0.00 0.00 0.00 0.00 0.00 0.00 0.00 0.00 0.00 0.00 0.00 0.00 0.00 0.00 0.00 0.00 0.00 0.00 0.00 0.00 0.00 0.00 0.00 0.00 0.00 0.00 0.00 0.00 0.00 0.00 0.00 0.00 0.00 0.00 0.00 0.00 0.00 0.00 0.00
0.00 0.00 0.00 0.00 0.00 0.00 0.00 0.00 0.00 0.00 0.00 0.00 0.00 0.00 0.00 0.00 0.00 0.00 0.00 0.00 0.00 0.00 0.00 0.00 0.00 0.00 0.00 0.00 0.00 0.00 0.00 0.00 0.00 0.00 0.00 0.00 0.00 0.00 0.00 0.00 0.00 0.00 0.00 0.00 0.00
0.00 0.00 0.00 0.00 0.00 0.00 0.00 0.00 0.00 0.00 0.00 0.00 0.00 0.00 0.00 0.00 0.00 0.00 0.00 0.00 0.00 0.00 0.00 0.00 0.00 0.00 0.00 0.00 0.00 0.00 0.00 0.00 0.00 0.00 0.00 0.00 0.00 0.00 0.00 0.00 0.00 0.00 0.00 0.00 0.00
0.00 0.00 0.00 0.00 0.00 0.00 0.00 0.00 0.00 0.00 0.00 0.00 0.00 0.00 0.00 0.00 0.00 0.00 0.00 0.00 0.00 0.00 0.00 0.00 0.00 0.00 0.00 0.00 0.00 0.00 0.00 0.00 0.00 0.00 0.00 0.01 0.00 0.00 0.00 0.00 0.00 0.00 0.00 0.00 0.00
0.00 0.00 0.00 0.00 0.00 0.00 0.00 0.00 0.00 0.00 0.00 0.00 0.00 0.00 0.00 0.00 0.00 0.00 0.00 0.00 0.00 0.00 0.00 0.00 0.00 0.00 0.00 0.00 0.00 0.00 0.00 0.00 0.00 0.00 0.00 0.00 0.00 0.00 0.00 0.00 0.00 0.00 0.00 0.00 0.00
0.00 0.00 0.00 0.00 0.00 0.00 0.00 0.00 0.00 0.00 0.00 0.00 0.00 0.00 0.00 0.00 0.00 0.00 0.00 0.00 0.00 0.00 0.00 0.00 0.00 0.00 0.00 0.00 0.00 0.00 0.00 0.00 0.00 0.00 0.00 0.00 0.00 0.00 0.00 0.00 0.00 0.00 0.00 0.00 0.00
0.00 0.00 0.00 0.00 0.00 0.00 0.00 0.00 0.00 0.00 0.00 0.00 0.00 0.00 0.00 0.00 0.00 0.00 0.00 0.00 0.00 0.00 0.00 0.00 0.00 0.00 0.01 0.00 0.00 0.00 0.00 0.00 0.00 0.00 0.00 0.00 0.00 0.00 0.00 0.00 0.00 0.00 0.00 0.00 0.00
0.01 0.00 0.00 0.00 0.00 0.00 0.00 0.00 0.00 0.00 0.00 0.00 0.00 0.00 0.00 0.00 0.00 0.00 0.00 0.00 0.00 0.00 0.00 0.00 0.00 0.01 0.00 0.00 0.00 0.00 0.00 0.00 0.00 0.00 0.00 0.00 0.00 0.00 0.00 0.00 0.00 0.00 0.00 0.00 0.00
MSLP
1017.37 1017.02 1016.63 1016.17 1015.76 1015.40 1015.14 1014.65 1014.25 1013.95 1013.79 1013.65 1013.59 1013.58 1013.50 1013.38 1013.22 1013.25 1013.00 1012.84 1012.51 1012.13 1011.87 1011.86 1011.85 1012.00 1012.02 1012.61 1012.88 1013.38 1014.56 1014.99 1014.70 1014.69 1014.84 1014.75 1014.65 1014.27 1014.15 1014.15 1014.04 1013.77 1013.77 1013.17 1012.37
1017.46 1017.12 1016.73 1016.29 1015.75 1015.34 1015.04 1014.71 1014.40 1014.08 1013.89 1013.76 1013.67 1013.58 1013.44 1013.31 1013.29 1013.12 1012.88 1012.57 1012.32 1012.12 1012.22 1012.34 1012.66 1012.65 1013.15 1013.42 1013.65 1014.15 1015.14 1015.10 1014.98 1014.93 1015.14 1015.08 1015.10 1014.77 1014.60 1014.43 1014.13 1013.86 1013.46 1012.97 1012.80
1017.47 1017.15 1016.78 1016.32 1015.78 1015.28 1014.95 1014.61 1014.34 1014.13 1013.94 1013.85 1013.70 1013.57 1013.45 1013.41 1013.46 1013.59 1013.09 1012.79 1012.53 1012.34 1012.47 1012.72 1013.07 1013.32 1013.85 1014.05 1014.53 1014.87 1015.28 1015.39 1015.30 1015.23 1015.37 1015.36 1015.29 1015.15 1015.00 1014.79 1014.42 1014.25 1013.91 1013.61 1013.17
1017.53 1017.08 1016.58 1016.08 1015.66 1015.28 1014.95 1014.58 1014.25 1014.07 1013.91 1013.74 1013.56 1013.53 1013.46 1013.52 1014.06 1013.60 1013.26 1013.09 1012.88 1012.66 1012.80 1013.30 1013.62 1014.10 1014.62 1014.94 1015.07 1015.30 1015.51 1015.60 1015.54 1015.47 1015.62 1015.63 1015.29 1015.36 1015.27 1014.82 1014.23 1014.23 1014.56 1014.33 1014.12
1017.36 1016.89 1016.40 1016.00 1015.60 1015.29 1015.00 1014.57 1014.29 1014.10 1013.94 1013.58 1013.47 1013.50 1013.58 1013.78 1014.04 1013.56 1013.39 1013.30 1013.05 1013.07 1013.44 1013.80 1014.20 1014.59 1015.09 1015.32 1015.49 1015.71 1015.86 1015.76 1015.65 1015.46 1015.35 1015.35 1015.25 1015.27 1014.81 1014.40 1014.33 1014.64 1014.37 1014.35 1014.26
1017.36 1016.96 1016.47 1016.01 1015.57 1015.21 1014.88 1014.51 1014.26 1014.11 1013.98 1013.70 1013.56 1013.49 1013.62 1014.16 1014.00 1013.82 1013.72 1013.58 1013.49 1013.53 1013.88 1014.09 1014.52 1014.75 1015.34 1015.72 1015.96 1016.15 1016.15 1016.02 1015.58 1015.31 1015.18 1015.27 1015.15 1015.19 1014.28 1014.11 1014.49 1014.64 1014.50 1014.47 1014.32
1017.35 1016.92 1016.41 1015.94 1015.54 1015.07 1014.75 1014.46 1014.27 1014.11 1014.01 1013.82 1013.54 1013.47 1013.91 1014.53 1014.11 1013.96 1013.79 1013.88 1013.77 1013.77 1014.21 1014.47 1014.59 1014.93 1015.60 1016.09 1016.26 1016.32 1016.38 1015.99 1015.73 1015.49 1015.26 1015.22 1015.07 1014.79 1014.01 1014.44 1014.64 1014.70 1014.45 1014.50 1014.47
1017.27 1016.87 1016.41 1015.92 1015.41 1015.05 1014.70 1014.38 1014.25 1014.06 1013.96 1013.85 1013.62 1013.66 1014.32 1014.16 1014.11 1014.08 1014.01 1014.07 1014.03 1014.01 1014.18 1014.46 1014.65 1015.22 1015.86 1016.37 1016.67 1016.88 1016.97 1016.80 1015.98 1015.71 1015.36 1015.43 1015.08 1014.34 1014.17 1014.51 1014.63 1014.59 1014.51 1014.49 1014.31
1017.10 1016.79 1016.47 1015.93 1015.39 1014.91 1014.46 1014.13 1014.01 1013.91 1013.78 1013.75 1013.86 1013.91 1014.48 1014.09 1014.19 1014.30 1014.27 1014.32 1014.30 1014.34 1014.41 1014.56 1014.99 1015.89 1016.43 1016.99 1017.63 1017.69 1017.89 1017.49 1016.73 1015.91 1015.92 1015.96 1015.07 1014.43 1014.21 1014.48 1014.50 1014.47 1014.32 1014.45 1014.44
1016.86 1016.52 1016.26 1016.02 1015.41 1014.81 1014.30 1014.04 1013.89 1013.69 1013.69 1013.83 1013.87 1014.47 1014.68 1014.47 1014.34 1014.40 1014.41 1014.43 1014.53 1014.66 1015.01 1015.21 1015.96 1016.57 1017.19 1017.52 1017.93 1018.06 1018.09 1017.78 1017.47 1016.51 1016.19 1016.24 1015.29 1014.34 1014.06 1014.36 1014.22 1014.30 1014.13 1014.23 1014.52
1016.63 1016.35 1016.07 1015.88 1015.44 1014.95 1014.43 1014.50 1014.96 1014.82 1014.50 1014.60 1014.62 1014.56 1014.55 1014.59 1014.47 1014.57 1014.58 1014.65 1014.80 1015.16 1015.77 1016.04 1016.59 1016.91 1016.98 1017.09 1017.21 1017.50 1017.83 1017.91 1017.26 1016.74 1016.65 1016.15 1015.48 1014.34 1013.82 1013.86 1013.86 1013.94 1014.10 1014.27 1014.46
1016.41 1016.27 1015.93 1015.78 1015.47 1015.18 1015.07 1015.93 1016.37 1016.71 1015.73 1014.77 1014.55 1014.53 1014.50 1014.44 1014.65 1014.71 1014.77 1015.03 1015.23 1015.74 1016.10 1016.66 1016.65 1016.25 1016.42 1016.70 1017.08 1017.33 1017.63 1017.68 1017.16 1016.92 1017.05 1016.26 1015.13 1014.06 1013.67 1013.64 1013.42 1013.59 1014.16 1014.29 1014.43
1016.32 1016.04 1015.79 1015.57 1015.41 1015.78 1016.26 1016.67 1016.67 1016.55 1016.13 1015.11 1014.53 1014.40 1014.54 1014.73 1014.64 1014.67 1014.92 1015.12 1015.41 1015.88 1016.24 1016.55 1016.16 1015.88 1016.24 1016.52 1016.92 1017.11 1017.50 1017.72 1017.94 1017.59 1017.35 1017.08 1015.44 1014.62 1013.84 1013.60 1013.27 1013.67 1014.09 1014.41 1014.46
1016.25 1015.91 1015.56 1015.31 1015.85 1016.32 1016.80 1016.69 1016.53 1016.50 1016.51 1015.50 1014.63 1014.27 1014.38 1014.47 1014.80 1014.72 1014.85 1015.31 1015.58 1015.97 1016.23 1016.35 1015.85 1015.77 1016.09 1016.37 1016.72 1017.09 1017.04 1017.68 1018.26 1018.86 1019.25 1018.42 1018.08 1015.62 1014.49 1014.20 1013.98 1014.38 1014.55 1014.47 1014.41
1015.95 1015.94 1015.57 1015.19 1016.00 1016.45 1016.74 1016.60 1016.44 1016.54 1016.09 1015.41 1014.63 1014.31 1014.34 1014.78 1014.77 1014.90 1014.99 1015.21 1015.67 1016.05 1016.64 1016.31 1016.04 1015.99 1016.18 1016.18 1016.47 1016.92 1017.28 1018.00 1018.67 1019.50 1020.00 1019.63 1019.61 1015.91 1015.10 1014.65 1014.47 1014.34 1014.43 1014.47 1014.42
1015.72 1015.79 1015.62 1015.75 1016.13 1016.52 1016.40 1016.40 1016.77 1016.89 1015.96 1015.19 1014.69 1014.64 1014.83 1014.87 1014.95 1015.18 1015.30 1015.49 1015.88 1016.38 1016.67 1016.61 1016.19 1016.16 1016.10 1016.21 1016.66 1017.15 1017.81 1018.81 1019.78 1020.55 1021.16 1020.24 1019.85 1016.90 1015.64 1014.85 1014.58 1014.52 1014.68 1014.75 1014.92
1015.64 1015.63 1015.67 1015.70 1015.96 1016.17 1016.32 1016.81 1017.25 1016.48 1015.57 1015.24 1014.91 1014.97 1015.17 1015.27 1015.42 1015.59 1015.91 1016.18 1016.54 1017.04 1017.36 1017.20 1016.75 1016.39 1016.26 1016.65 1017.20 1017.87 1019.02 1020.18 1021.36 1021.98 1021.69 1020.61 1019.94 1016.52 1015.21 1014.53 1014.34 1014.52 1014.69 1014.62 1014.78
1015.49 1015.71 1015.79 1015.69 1015.77 1015.88 1016.39 1017.02 1017.05 1015.92 1015.38 1014.85 1014.75 1015.08 1015.54 1015.67 1016.01 1016.21 1016.50 1016.72 1016.91 1017.42 1018.24 1018.39 1017.66 1017.03 1016.83 1017.05 1017.66 1018.81 1020.11 1021.97 1023.27 1023.60 1022.80 1021.14 1019.17 1016.04 1014.80 1014.28 1014.23 1014.33 1014.64 1014.75 1014.54
1015.37 1015.93 1016.20 1015.87 1015.84 1015.94 1016.58 1016.89 1015.39 1014.92 1014.74 1014.87 1015.18 1015.31 1015.83 1016.14 1016.74 1017.01 1017.09 1017.24 1017.25 1017.67 1018.66 1019.50 1018.68 1017.73 1017.42 1017.51 1018.07 1019.54 1020.84 1022.04 1023.40 1024.23 1023.87 1020.98 1018.51 1015.91 1014.87 1014.66 1014.62 1014.76 1014.91 1014.63 1014.36
1015.33 1015.91 1015.96 1015.68 1015.80 1016.32 1016.52 1015.83 1015.13 1014.35 1014.35 1014.59 1015.07 1015.41 1016.09 1016.51 1017.18 1017.56 1017.47 1017.34 1017.53 1017.88 1018.43 1019.68 1019.76 1019.03 1018.49 1018.28 1018.85 1019.44 1020.93 1022.74 1024.62 1025.41 1024.32 1020.67 1018.80 1016.04 1014.90 1014.76 1014.82 1014.51 1014.26 1014.03 1013.91
1015.22 1015.87 1015.58 1015.68 1016.20 1016.57 1016.23 1015.27 1014.64 1014.28 1014.09 1014.56 1015.02 1015.69 1016.33 1016.95 1017.58 1017.86 1017.80 1017.62 1017.62 1018.33 1018.81 1019.94 1020.89 1020.51 1019.81 1019.46 1019.70 1020.62 1021.60 1023.36 1024.54 1025.34 1025.10 1022.47 1017.66 1014.96 1014.47 1014.55 1014.71 1014.73 1014.33 1014.09 1013.73
1014.78 1015.90 1015.59 1015.89 1016.89 1016.46 1015.95 1014.56 1013.84 1014.21 1014.36 1014.63 1014.94 1015.51 1016.27 1016.99 1017.77 1018.09 1017.87 1017.58 1017.57 1018.17 1019.40 1020.33 1021.34 1021.90 1020.89 1020.26 1020.55 1021.03 1021.99 1023.25 1024.69 1025.37 1024.81 1023.31 1016.74 1014.35 1014.07 1014.19 1014.61 1014.27 1014.04 1013.76 1013.43
1014.06 1015.05 1015.59 1015.75 1016.42 1016.35 1015.60 1014.63 1013.89 1014.11 1014.34 1014.84 1015.28 1015.52 1016.26 1017.09 1017.84 1017.93 1017.74 1017.46 1017.57 1018.12 1019.11 1020.37 1021.73 1022.58 1021.54 1021.59 1021.31 1021.70 1022.21 1023.05 1023.83 1024.06 1022.81 1022.20 1016.39 1014.37 1013.74 1013.51 1013.79 1013.88 1013.66 1013.40 1013.00
1013.69 1014.76 1015.35 1015.60 1015.60 1015.32 1015.44 1014.84 1014.21 1013.88 1014.15 1014.43 1015.16 1015.82 1016.55 1017.23 1017.49 1017.93 1017.87 1017.71 1017.86 1018.24 1018.87 1019.79 1021.38 1021.87 1021.78 1021.70 1022.15 1022.40 1022.11 1022.31 1022.79 1022.81 1020.41 1018.63 1015.00 1014.55 1014.25 1014.10 1013.96 1013.93 1013.56 1013.21 1012.78
1012.40 1012.90 1012.78 1014.45 1014.92 1014.74 1014.74 1014.32 1013.99 1013.97 1014.13 1014.37 1015.26 1015.49 1016.20 1017.37 1017.84 1017.77 1017.89 1018.09 1018.33 1018.60 1019.20 1020.21 1021.15 1021.50 1021.23 1021.06 1021.44 1021.27 1021.26 1021.16 1021.39 1019.90 1019.85 1015.72 1016.71 1014.43 1014.50 1014.21 1014.14 1013.92 1013.57 1013.23 1012.67
1011.13 1011.98 1012.62 1012.68 1013.19 1014.11 1014.12 1013.95 1013.47 1013.22 1013.56 1014.36 1014.70 1014.71 1015.64 1016.44 1016.26 1016.99 1017.43 1018.03 1018.37 1019.33 1019.61 1020.79 1020.85 1021.18 1020.89 1020.40 1020.15 1019.85 1018.98 1019.01 1018.79 1018.56 1018.08 1016.77 1015.25 1014.94 1014.71 1014.37 1014.25 1014.06 1013.78 1013.49 1012.83
1009.57 1010.48 1010.88 1011.61 1012.76 1013.39 1012.71 1012.35 1012.40 1012.34 1012.79 1012.72 1013.34 1014.45 1015.29 1014.93 1015.57 1016.37 1016.66 1017.34 1018.03 1018.95 1020.05 1020.77 1020.94 1021.40 1020.60 1020.39 1020.01 1018.51 1016.06 1016.45 1016.47 1016.58 1016.50 1016.46 1014.82 1014.70 1014.62 1014.47 1014.13 1013.93 1013.77 1013.40 1012.76
Thickness
5652 5654 5656 5659 5661 5662 5662 5664 5665 5665 5664 5662 5661 5659 5658 5658 5658 5657 5656 5657 5661 5665 5666 5668 5669 5668 5669 5664 5665 5661 5641 5638 5651 5652 5649 5649 5650 5659 5659 5656 5656 5662 5661 5667 5672
5649 5651 5653 5655 5658 5659 5659 5658 5658 5658 5657 5656 5654 5653 5653 5653 5652 5651 5651 5653 5654 5656 5656 5654 5652 5655 5650 5651 5650 5644 5629 5637 5645 5644 5640 5640 5640 5643 5646 5644 5651 5650 5656 5661 5664
5646 5648 5650 5652 5654 5655 5655 5655 5655 5654 5653 5651 5650 5648 5647 5646 5644 5640 5644 5645 5647 5649 5648 5647 5644 5644 5640 5641 5638 5634 5627 5633 5635 5638 5634 5633 5632 5635 5634 5635 5640 5640 5644 5647 5650
5643 5645 5648 5650 5651 5652 5652 5652 5653 5652 5651 5649 5647 5645 5643 5641 5634 5636 5638 5639 5640 5642 5641 5635 5633 5631 5627 5627 5628 5625 5626 5625 5626 5627 5624 5623 5626 5625 5624 5630 5635 5634 5630 5630 5627
5640 5642 5645 5647 5649 5649 5648 5649 5649 5647 5646 5646 5645 5642 5639 5631 5627 5632 5633 5633 5634 5634 5630 5627 5623 5621 5617 5618 5619 5616 5616 5616 5615 5617 5618 5619 5618 5618 5620 5625 5624 5621 5623 5622 5620
5636 5638 5641 5643 5645 5646 5646 5646 5645 5644 5642 5642 5640 5638 5635 5623 5627 5626 5626 5627 5627 5625 5621 5620 5616 5615 5609 5608 5608 5605 5605 5602 5609 5612 5613 5616 5614 5612 5620 5622 5616 5613 5614 5611 5610
5633 5635 5638 5639 5641 5643 5643 5643 5642 5641 5639 5637 5635 5634 5624 5615 5622 5622 5621 5620 5620 5619 5614 5612 5611 5609 5602 5600 5599 5599 5596 5600 5604 5608 5609 5609 5603 5605 5614 5609 5606 5602 5605 5603 5599
5627 5630 5634 5636 5638 5639 5640 5640 5639 5637 5635 5632 5632 5629 5616 5619 5618 5617 5616 5614 5613 5612 5610 5607 5605 5600 5596 5594 5586 5589 5584 5584 5599 5598 5603 5603 5585 5606 5605 5603 5598 5595 5592 5591 5588
5623 5625 5627 5631 5634 5637 5638 5639 5637 5635 5632 5630 5628 5623 5612 5616 5612 5611 5610 5608 5607 5606 5604 5603 5598 5588 5583 5571 5560 5564 5555 5575 5577 5592 5591 5592 5584 5597 5594 5591 5589 5584 5582 5579 5573
5619 5622 5623 5624 5628 5632 5635 5635 5634 5633 5630 5627 5625 5616 5610 5608 5608 5606 5605 5604 5602 5599 5594 5591 5575 5566 5560 5555 5558 5572 5559 5563 5560 5578 5581 5569 5579 5593 5587 5582 5579 5574 5569 5565 5560
5615 5618 5619 5619 5622 5625 5629 5626 5620 5622 5619 5616 5613 5611 5608 5607 5605 5602 5601 5599 5596 5589 5581 5578 5566 5568 5571 5563 5571 5573 5563 5553 5555 5566 5570 5564 5570 5582 5588 5578 5570 5566 5559 5553 5550
5611 5612 5614 5614 5615 5617 5617 5606 5601 5602 5608 5614 5612 5608 5606 5605 5601 5599 5598 5593 5589 5579 5576 5563 5561 5573 5572 5567 5565 5565 5558 5546 5554 5562 5565 5560 5574 5577 5577 5578 5575 5562 5547 5544 5540
5604 5607 5608 5610 5609 5605 5600 5597 5595 5595 5599 5608 5608 5606 5602 5599 5597 5596 5593 5588 5584 5576 5572 5560 5575 5575 5570 5568 5564 5557 5551 5546 5547 5548 5547 5547 5553 5558 5570 5569 5565 5550 5542 5532 5525
5597 5600 5603 5605 5600 5594 5589 5590 5590 5589 5565 5600 5601 5601 5598 5596 5591 5592 5589 5584 5579 5575 5567 5559 5568 5572 5566 5561 5557 5546 5553 5550 5541 5528 5514 5534 5499 5537 5548 5542 5547 5523 5519 5519 5513
5591 5592 5595 5598 5591 5586 5585 5585 5584 5580 5569 5595 5594 5595 5594 5589 5588 5585 5584 5579 5573 5571 5559 5564 5564 5562 5556 5555 5555 5544 5547 5537 5533 5514 5514 5510 5482 5517 5533 5538 5524 5521 5510 5502 5496
5584 5584 5587 5587 5584 5581 5581 5579 5576 5567 5558 5588 5588 5586 5584 5582 5582 5577 5576 5572 5568 5561 5554 5549 5556 5555 5547 5549 5546 5539 5531 5508 5497 5489 5440 5485 5486 5505 5516 5522 5513 5508 5497 5485 5470
5575 5576 5578 5579 5576 5575 5574 5569 5562 5552 5587 5585 5583 5580 5579 5575 5573 5568 5563 5558 5551 5534 5537 5539 5547 5547 5546 5539 5531 5520 5498 5456 5466 5441 5452 5487 5481 5504 5517 5509 5504 5497 5484 5468 5456
5563 5565 5566 5569 5570 5570 5565 5555 5550 5580 5577 5581 5579 5575 5570 5570 5564 5562 5554 5544 5545 5540 5494 5500 5523 5538 5535 5530 5523 5507 5493 5443 5459 5422 5458 5474 5482 5499 5500 5503 5494 5487 5468 5452 5446
5553 5553 5554 5559 5560 5561 5554 5529 5564 5571 5579 5573 5566 5567 5563 5559 5545 5546 5543 5534 5540 5529 5515 5473 5513 5522 5523 5522 5515 5494 5472 5479 5456 5444 5407 5453 5467 5491 5487 5481 5474 5460 5450 5442 5431
5540 5540 5544 5549 5550 5547 5536 5562 5570 5574 5567 5567 5569 5563 5553 5552 5545 5523 5527 5535 5533 5526 5514 5498 5473 5504 5505 5511 5499 5498 5479 5452 5395 5394 5417 5453 5447 5489 5484 5466 5457 5447 5442 5442 5429
5530 5525 5536 5537 5535 5529 5530 5546 5560 5564 5565 5558 5551 5549 5545 5542 5516 5517 5510 5524 5523 5507 5497 5480 5469 5485 5489 5492 5482 5470 5466 5439 5418 5404 5398 5407 5457 5469 5471 5464 5448 5434 5435 5422 5416
5519 5509 5525 5523 5508 5519 5521 5548 5564 5552 5551 5548 5546 5545 5534 5524 5506 5499 5509 5506 5511 5500 5493 5477 5437 5430 5465 5478 5470 5473 5435 5423 5404 5388 5366 5394 5464 5478 5466 5457 5438 5438 5424 5409 5401
5509 5505 5510 5512 5503 5515 5524 5544 5549 5544 5540 5535 5532 5535 5527 5517 5492 5496 5502 5507 5499 5492 5473 5466 5427 5413 5459 5451 5453 5442 5438 5412 5379 5375 5414 5389 5454 5458 5456 5455 5441 5424 5416 5408 5398
5497 5502 5500 5500 5502 5512 5510 5520 5533 5539 5533 5531 5526 5521 5514 5508 5501 5482 5491 5497 5489 5486 5489 5476 5438 5433 5446 5435 5403 5418 5403 5428 5412 5403 5436 5436 5462 5456 5446 5433 5426 5411 5403 5389 5385
5492 5502 5515 5506 5499 5500 5495 5505 5522 5520 5524 5520 5511 5511 5504 5467 5485 5484 5478 5481 5481 5482 5475 5454 5433 5427 5442 5449 5424 5425 5416 5406 5410 5432 5411 5457 5417 5440 5429 5421 5409 5395 5384 5380 5376
5489 5493 5494 5497 5499 5491 5496 5499 5517 5519 5507 5505 5507 5509 5495 5480 5493 5476 5472 5465 5463 5451 5433 5422 5440 5436 5438 5446 5444 5444 5450 5442 5430 5425 5418 5423 5427 5417 5410 5395 5386 5378 5371 5366 5363
5490 5492 5498 5499 5480 5480 5498 5511 5512 5514 5511 5517 5510 5502 5486 5495 5488 5482 5477 5469 5463 5444 5423 5424 5420 5416 5421 5430 5429 5434 5458 5451 5443 5427 5416 5403 5419 5410 5395 5385 5378 5370 5359 5356 5354